Location: Bruderhein
(53.8035°N, 112.9265°W)
Time: 02:33:03
(UTC+00:00)

STRAND 1 - Pass Details

Date: 08 April 2023
Orbit: 767 x 779 km, 98.4° (Epoch: 31 May)

Event Time Altitude Azimuth Distance (km) Brightness Sun altitude
Rises 10:51:49 0° 95° (E) 3,248 ? -16.2°
Reaches altitude 10° 10:55:46 10° 64° (ENE) 2,323 ? -15.7°
Maximum altitude 10:57:26 12° 44° (NE) 2,213 ? -15.5°
Drops below altitude 10° 10:59:07 10° 25° (NNE) 2,325 ? -15.3°
Sets 11:03:04 0° 354° (N) 3,255 ? -14.9°
